Regional Weather Roundup
Issued by NWS State College, PA

Home | Current Version | Previous Version | Text Only | Print | Product List | Glossary On
Versions: 1 2 3 4 5 6 7 8 9 10 11 12 13 14 15 16 17 18 19 20 21 22 23 24 25 26 27 28 29 30 31 32 33 34 35 36 37 38 39 40 41 42 43 44 45 46 47 48 49 50
000
ASUS41 KCTP 260810
RWRCTP

REGIONAL WEATHER ROUNDUP
NATIONAL WEATHER SERVICE STATE COLLEGE PA
400 AM EDT TUE JUL 26 2016

Note: "fair" indicates few or no clouds below 12,000 feet with no
significant weather and/or obstructions to visibility.

* = STATION THAT DOES NOT REPORT PRECIPITATION /E.G. RAIN...SNOW...ETC/
    THUNDER OR FOG.

PAZ002>004-007>009-013>016-020>023-029>032-260900-
WESTERN PENNSYLVANIA

CITY           SKY/WX    TMP DP  RH WIND       PRES   REMARKS
ERIE           MOCLDY    74  62  66 N12       29.98R
MEADVILLE      CLOUDY    67  65  93 SW3       30.00R
FRANKLIN*      CLOUDY    66  63  88 W5        30.02S
NEW CASTLE     FOG       66  66 100 CALM      30.00R VSB 3/4
BEAVER COUNTY  NOT AVBL
BUTLER*        CLEAR     68  64  88 CALM      30.02S
PITTSBURGH INT MOCLDY    72  67  84 CALM      29.99R
PITTSBURGH     PTCLDY    72  68  87 S3        29.99R
INDIANA*       MOCLDY    70  70 100 CALM      30.03S FOG
LATROBE        PTCLDY    68  68 100 CALM      30.00S
WASHINGTON CO* PTCLDY    66  64  94 CALM      30.01R
$$

PAZ004>006-010>012-017>019-024>028-033>037-041-042-045-046-049>053-260900-
CENTRAL PENNSYLVANIA

CITY           SKY/WX    TMP DP  RH WIND       PRES   REMARKS
BRADFORD       FOG       60  59  96 SE3       30.01S VSB 3/4
DUBOIS         PTCLDY    67  64  90 W3        30.00S FOG
CLEARFIELD     FOG       70  68  93 SW3       29.99S VSB 1/4
JOHNSTOWN      CLOUDY    71  65  81 SW6       30.04S
ALTOONA        CLOUDY    69  65  86 CALM      30.01R
STATE COLLEGE  PTCLDY    71  69  93 W5        29.97S
WILLIAMSPORT   CLOUDY    72  68  87 CALM      29.92S
SELINSGROVE    CLOUDY    69  69 100 CALM      29.95R FOG
FT INDIANTOWN  FOG       66  66 100 E2        29.94S VSB 1
CAPITAL CITY   FOG       72  70  93 SW3       29.93S VSB 3/4
HARRISBURG     MOCLDY    72  72 100 CALM      29.93R
YORK           FOG       69  69 100 CALM      29.94S VSB 3/4
$$

PAZ038>040-043-044-047-048-054-055-060>062-067>071-260900-
EASTERN PENNSYLVANIA

CITY           SKY/WX    TMP DP  RH WIND       PRES   REMARKS
SCRANTON       CLOUDY    69  67  93 SW7       29.93R
MOUNT POCONO   CLOUDY    65  64  97 NW8       29.96R FOG
ALLENTOWN      CLEAR     66  64  93 SW5       29.92R FOG
QUAKERTOWN*    SUNNY     66  66 100 CALM      29.94R
READING        CLEAR     69  67  93 CALM      29.92R FOG
LANCASTER      MOCLDY    69  69 100 CALM      29.94R
COATESVILLE    MOSUNNY   72  70  94 W6        29.95S
POTTSTOWN      CLEAR     69  69 100 CALM      29.94R
BLUE BELL      CLEAR     68  68 100 CALM      29.91S
DOYLESTOWN     CLEAR     68  68 100 SW3       29.92R
WILLOW GROVE   NOT AVBL
NORTH PHILA    CLEAR     73  72  96 W6        29.92S
PHILADELPHIA   MOCLDY    75  73  93 NW7       29.91S
$$



USA.gov is the U.S. government's official web portal to all federal, state and local government web resources and services.